DW4130 Weather Reports


time (UTC)temp
C
wind
direction
speed
KPH
gust
KPH
rain 1hr
cm
rain 24hr
cm
rain mn
cm
humidity
%
barometer
mb
20260503213003 31 61 1.6 4.8 0.00 0.00 0.00 34 1000.9
20260503212502 31 17 0.0 3.2 0.00 0.00 0.00 36 1001.0
20260503212003 31 102 0.0 8.0 0.00 0.00 0.00 36 1001.0
20260503211503 31 285 3.2 9.7 0.00 0.00 0.00 38 1001.1
20260503211003 31 291 0.0 3.2 0.00 0.00 0.00 38 1001.1
20260503210503 31 292 1.6 4.8 0.00 0.00 0.00 40 1001.2
20260503210005 31 298 0.0 4.8 0.00 0.00 0.00 40 1001.3
20260503205503 30 317 1.6 8.0 0.00 0.00 0.00 40 1001.3
20260503205003 30 286 1.6 3.2 0.00 0.00 0.00 42 1001.4
20260503204503 30 298 0.0 3.2 0.00 0.00 0.00 44 1001.5
20260503204004 30 345 1.6 3.2 0.00 0.00 0.00 41 1001.6
20260503203004 30 65 0.0 3.2 0.00 0.00 0.00 42 1001.7
20260503202503 29 329 0.0 3.2 0.00 0.00 0.00 45 1001.7
20260503202003 29 5 0.0 4.8 0.00 0.00 0.00 44 1001.9
20260503201503 29 278 0.0 3.2 0.00 0.00 0.00 43 1001.9
20260503201004 28 73 1.6 4.8 0.00 0.00 0.00 47 1002.0
20260503200504 28 277 0.0 8.0 0.00 0.00 0.00 44 1002.1
20260503200004 28 30 0.0 3.2 0.00 0.00 0.00 48 1002.1
20260503195503 28 281 0.0 4.8 0.00 0.00 0.00 50 1002.2
20260503194503 28 67 1.6 4.8 0.00 0.00 0.00 51 1002.3
20260503194004 28 96 0.0 3.2 0.00 0.00 0.00 53 1002.4
20260503193004 27 308 0.0 3.2 0.00 0.00 0.00 53 1002.5
20260503192503 27 5 0.0 3.2 0.00 0.00 0.00 52 1002.5
20260503192003 27 22 0.0 3.2 0.00 0.00 0.00 52 1002.6
20260503191504 26 276 0.0 4.8 0.00 0.00 0.00 52 1002.6
20260503191003 26 69 1.6 3.2 0.00 0.00 0.00 53 1002.7
20260503190503 26 293 0.0 4.8 0.00 0.00 0.00 55 1002.8
20260503190003 26 63 0.0 4.8 0.00 0.00 0.00 54 1002.9
20260503185505 26 64 1.6 4.8 0.00 0.00 0.00 58 1002.9
20260503185004 26 66 1.6 3.2 0.00 0.00 0.00 56 1003.0
20260503184503 26 57 0.0 3.2 0.00 0.00 0.00 61 1003.1
20260503184004 25 302 0.0 4.8 0.00 0.00 0.00 55 1003.1
20260503183504 25 142 0.0 3.2 0.00 0.00 0.00 58 1003.2
20260503183004 25 90 1.6 4.8 0.00 0.00 0.00 56 1003.3
20260503182504 25 288 0.0 4.8 0.00 0.00 0.00 59 1003.3
20260503182005 25 293 0.0 4.8 0.00 0.00 0.00 58 1003.4
20260503181505 25 326 1.6 3.2 0.00 0.00 0.00 58 1003.4
20260503181003 25 81 0.0 3.2 0.00 0.00 0.00 62 1003.4
20260503180503 24 80 0.0 0.0 0.00 0.00 0.00 59 1003.5
20260503180003 23 80 0.0 3.2 0.00 0.00 0.00 62 1003.6
20260503175502 22 80 1.6 3.2 0.00 0.00 0.00 61 1003.6
20260503174502 23 19 0.0 3.2 0.00 0.00 0.00 62 1003.7
20260503174002 23 16 0.0 1.6 0.00 0.00 0.00 60 1003.7
20260503173502 23 292 0.0 4.8 0.00 0.00 0.00 63 1003.8
20260503173003 22 294 0.0 3.2 0.00 0.00 0.00 64 1003.9
20260503172502 22 294 0.0 4.8 0.00 0.00 0.00 63 1003.9
20260503171002 21 36 0.0 3.2 0.00 0.00 0.00 69 1004.0
20260503151003 15 182 0.0 0.0 0.00 0.00 0.00 87 1004.5
20260503150504 15 182 0.0 0.0 0.00 0.00 0.00 88 1004.6
20260503131003 10 182 0.0 0.0 0.00 0.00 0.00 89 1004.3
20260503110503 12 182 0.0 0.0 0.00 0.00 0.00 88 1004.5
20260503090502 13 182 0.0 0.0 0.00 0.00 0.00 86 1004.7
20260503081003 13 182 0.0 0.0 0.00 0.03 0.00 84 1004.8
20260503080503 13 181 0.0 0.0 0.00 0.03 0.00 85 1004.8
20260503072502 15 182 0.0 0.0 0.00 0.03 0.00 83 1004.9
20260503072003 15 182 0.0 0.0 0.00 0.03 0.00 83 1004.9
20260503071502 15 182 0.0 0.0 0.00 0.03 0.00 82 1004.9
20260503071003 15 182 0.0 0.0 0.00 0.03 0.00 83 1004.8
20260503070503 15 182 0.0 0.0 0.00 0.03 0.00 82 1004.9
20260503055004 16 182 0.0 3.2 0.00 0.03 0.03 80 1004.3
20260503054503 16 180 0.0 0.0 0.00 0.03 0.03 80 1004.3
20260503054004 16 181 0.0 0.0 0.00 0.03 0.03 79 1004.5
20260503053503 16 181 0.0 0.0 0.00 0.03 0.03 79 1004.6
20260503053004 16 182 0.0 0.0 0.00 0.03 0.03 79 1004.7
20260503052505 16 182 0.0 0.0 0.00 0.03 0.03 79 1004.8
20260503052003 16 182 0.0 0.0 0.00 0.03 0.03 79 1004.8
20260503051503 17 182 0.0 0.0 0.00 0.03 0.03 79 1004.8
20260503051004 17 181 0.0 0.0 0.00 0.03 0.03 78 1004.9
20260503050003 17 180 0.0 0.0 0.00 0.03 0.03 77 1005.0
20260503044504 17 182 0.0 0.0 0.00 0.03 0.03 76 1005.0
20260503044004 17 182 0.0 0.0 0.00 0.03 0.03 75 1005.1
20260503043503 17 182 0.0 3.2 0.00 0.03 0.03 75 1005.1
20260503043002 17 182 0.0 0.0 0.00 0.03 0.03 74 1005.0
20260503042503 18 181 0.0 0.0 0.00 0.03 0.03 74 1005.0
20260503042002 18 182 0.0 0.0 0.00 0.03 0.03 73 1005.0
20260503041502 18 182 0.0 0.0 0.00 0.03 0.03 73 1005.0
20260503041002 18 182 0.0 0.0 0.00 0.03 0.03 72 1005.0
20260503040503 18 182 0.0 0.0 0.00 0.03 0.03 72 1005.0
20260503040003 18 182 0.0 0.0 0.00 0.03 0.03 71 1005.0
20260503035503 18 182 0.0 0.0 0.00 0.03 0.03 71 1005.0
20260503035003 18 181 0.0 0.0 0.00 0.03 0.03 70 1004.9
20260503034503 18 182 0.0 0.0 0.00 0.03 0.03 70 1005.0
20260503034003 19 182 0.0 0.0 0.00 0.03 0.03 69 1004.9
20260503033503 19 182 0.0 0.0 0.00 0.03 0.03 69 1004.9
20260503033003 19 182 0.0 3.2 0.00 0.03 0.03 68 1004.9
20260503032502 19 182 0.0 0.0 0.00 0.03 0.03 67 1004.8
20260503031504 20 181 0.0 0.0 0.00 0.03 0.03 67 1004.8
20260503030503 20 182 0.0 3.2 0.00 0.03 0.03 66 1004.7
20260503030003 20 179 0.0 3.2 0.00 0.03 0.03 67 1004.6
20260503025504 20 179 1.6 8.0 0.00 0.03 0.03 67 1004.6
20260503025003 20 174 0.0 4.8 0.00 0.03 0.03 67 1004.4
20260503024504 20 85 0.0 3.2 0.00 0.03 0.03 67 1004.4
20260503024003 20 82 0.0 3.2 0.00 0.03 0.03 67 1004.3
20260503023503 21 86 0.0 4.8 0.00 0.03 0.03 66 1004.1
20260503023003 21 65 1.6 3.2 0.00 0.03 0.03 66 1004.1
20260503022003 21 80 0.0 1.6 0.00 0.03 0.03 64 1004.0
20260503021503 21 77 1.6 4.8 0.00 0.03 0.03 64 1003.9
20260503021003 21 92 0.0 3.2 0.00 0.03 0.03 65 1003.7
20260503020504 21 92 0.0 3.2 0.00 0.03 0.03 64 1003.7
20260503020004 21 92 0.0 3.2 0.00 0.03 0.03 63 1003.6
20260503015504 21 91 0.0 3.2 0.00 0.03 0.03 63 1003.5
20260503014504 22 127 0.0 3.2 0.00 0.03 0.03 62 1003.3
20260503014004 22 154 0.0 3.2 0.00 0.03 0.03 62 1003.4
20260503013504 22 154 0.0 3.2 0.00 0.03 0.03 62 1003.4
20260503013004 22 150 1.6 3.2 0.00 0.03 0.03 62 1003.3
20260503012504 22 201 0.0 3.2 0.00 0.03 0.03 62 1003.3
20260503012004 22 220 0.0 3.2 0.00 0.03 0.03 62 1003.3
20260503011504 22 221 0.0 0.0 0.00 0.03 0.03 61 1003.3
20260503011004 22 221 0.0 1.6 0.00 0.03 0.03 61 1003.3
20260503010004 22 285 0.0 3.2 0.00 0.03 0.03 61 1003.3
20260503005004 22 285 0.0 3.2 0.00 0.03 0.03 61 1003.3
20260503004505 22 293 0.0 3.2 0.00 0.03 0.03 60 1003.3
20260503004004 22 259 1.6 4.8 0.00 0.03 0.03 60 1003.3
20260503003504 22 294 0.0 3.2 0.00 0.03 0.03 61 1003.4
20260503002504 22 279 1.6 8.0 0.00 0.03 0.03 61 1003.4
20260503000002 22 285 1.6 8.0 0.00 0.03 0.03 62 1003.4
20260502235502 22 294 1.6 9.7 0.00 0.03 0.03 61 1003.4
20260502235003 22 297 4.8 4.8 0.00 0.03 0.03 61 1003.5
20260502234503 22 295 1.6 8.0 0.00 0.03 0.03 62 1003.5
20260502234002 22 285 0.0 3.2 0.00 0.03 0.03 62 1003.6
20260502233503 22 291 0.0 9.7 0.00 0.03 0.03 61 1003.6
20260502233003 22 308 1.6 8.0 0.00 0.03 0.03 61 1003.7
20260502232503 22 281 3.2 4.8 0.00 0.03 0.03 62 1003.8
20260502232002 21 302 1.6 9.7 0.00 0.03 0.03 62 1003.8
20260502231502 21 214 1.6 4.8 0.00 0.03 0.03 63 1003.8
20260502231003 21 236 0.0 3.2 0.00 0.03 0.03 63 1003.9
20260502230003 21 308 1.6 4.8 0.00 0.03 0.03 62 1004.1
20260502225503 21 275 1.6 3.2 0.00 0.03 0.03 61 1004.2
20260502225003 21 276 3.2 4.8 0.00 0.03 0.03 63 1004.3
20260502224503 21 264 1.6 4.8 0.00 0.03 0.03 63 1004.4
20260502224003 21 228 1.6 3.2 0.00 0.03 0.03 63 1004.5
20260502223503 21 207 0.0 3.2 0.00 0.03 0.03 62 1004.5
20260502223003 21 237 1.6 4.8 0.00 0.03 0.03 63 1004.6
20260502222004 21 284 1.6 8.0 0.00 0.03 0.03 64 1004.8
20260502221503 20 297 1.6 4.8 0.00 0.03 0.03 65 1004.9
20260502220003 20 289 0.0 0.0 0.00 0.03 0.03 67 1005.2
20260502215503 20 289 0.0 3.2 0.00 0.03 0.03 65 1005.2
20260502214503 20 304 0.0 4.8 0.00 0.03 0.03 65 1005.3
20260502214003 20 310 1.6 4.8 0.00 0.03 0.03 64 1005.4
20260502213503 20 173 1.6 4.8 0.00 0.03 0.03 65 1005.5